Date,TemperatureHighF,TemperatureAvgF,TemperatureLowF,DewpointHighF,DewpointAvgF,DewpointLowF,HumidityHigh,HumidityAvg,HumidityLow,PressureMaxIn,PressureMinIn,WindSpeedMaxMPH,WindSpeedAvgMPH,GustSpeedMaxMPH,PrecipitationSumIn
2013-1-1,37.0,33.1,23.4,31.0,25.4,14.5,87,73,59,29.67,29.51,13,2,13,0.21
2013-1-2,30.7,24.5,19.8,18.1,16.0,13.2,83,70,57,29.85,29.64,14,1,17,0.21
2013-1-3,33.4,23.5,10.4,22.6,15.2,7.1,90,71,51,29.84,29.71,11,1,12,0.21
2013-1-4,36.5,32.2,30.0,25.4,22.6,19.5,80,68,58,30.06,29.62,20,5,25,0.21
2013-1-5,41.7,31.3,23.5,27.5,22.5,19.3,85,70,56,30.34,30.06,14,2,14,0.07
2013-1-6,43.6,33.6,26.6,30.6,27.0,22.9,88,77,59,30.17,29.93,11,1,11,0.10
2013-1-7,43.7,35.3,22.6,31.1,27.8,19.9,89,75,55,30.36,30.06,11,1,11,0.04
2013-1-8,49.4,29.4,16.9,35.2,23.9,14.7,94,82,53,30.37,30.30,5,0,6,0.01
2013-1-9,39.7,28.6,19.3,33.5,25.7,17.1,95,89,77,30.36,30.13,6,0,6,0.00
2013-1-10,48.3,35.1,25.4,32.7,27.5,22.2,91,75,50,30.54,30.28,9,0,9,0.00
2013-1-11,44.2,36.7,29.1,37.0,32.5,26.3,97,85,65,30.47,30.07,9,0,9,0.33
2013-1-12,45.7,39.8,36.2,45.1,39.0,35.7,100,97,93,30.15,30.07,4,0,4,0.01
2013-1-13,49.6,43.6,38.8,49.6,43.3,38.5,100,99,98,30.10,29.93,6,0,6,0.01
2013-1-14,52.4,46.0,36.6,48.2,39.7,28.4,100,80,54,30.29,29.88,16,2,16,0.09
2013-1-15,39.2,33.6,26.2,28.8,25.7,22.5,89,73,61,30.35,30.17,9,1,10,0.00
2013-1-16,54.9,32.0,30.0,35.3,30.5,0.0,96,94,86,34.66,29.37,5,0,5,0.04
2013-1-17,40.3,34.6,31.4,32.2,30.3,0.0,97,85,71,30.10,27.46,12,1,12,0.29
2013-1-18,31.5,26.5,21.2,28.1,14.7,8.6,87,61,45,30.43,30.00,18,2,20,0.00
2013-1-19,51.7,36.0,19.0,31.5,23.9,12.6,89,64,40,30.30,29.81,16,2,18,0.05
2013-1-20,48.9,38.5,21.7,32.5,22.2,10.7,66,52,33,30.07,29.67,26,4,26,0.00
2013-1-21,28.7,23.7,18.7,23.2,15.1,6.0,91,70,55,30.07,29.84,17,1,17,0.00
2013-1-22,19.3,13.9,7.6,7.2,-0.3,-7.5,70,53,37,30.21,29.88,24,4,24,0.00
2013-1-23,18.6,8.6,5.8,4.3,0.1,-4.5,79,68,44,30.24,29.77,5,1,19,0.00
2013-1-24,24.7,14.5,6.1,8.7,3.4,-1.3,81,63,38,30.12,29.64,21,1,21,0.00
2013-1-25,21.9,13.0,5.8,11.9,5.5,-2.1,86,72,54,30.11,29.69,5,0,5,0.00
2013-1-26,30.8,17.1,7.6,16.2,9.2,3.1,87,72,48,30.04,29.70,11,0,11,0.01
2013-1-27,35.7,17.7,2.9,21.4,10.3,-1.4,89,74,49,30.21,30.03,9,0,9,0.02
2013-1-28,33.2,28.2,18.4,31.3,25.4,14.5,96,89,80,30.10,29.65,5,0,5,0.01
2013-1-29,41.4,36.1,32.3,39.9,35.0,31.0,98,96,92,29.76,29.60,6,0,6,0.12
2013-1-30,63.6,47.8,32.9,59.7,46.9,32.1,100,97,86,29.60,29.13,26,2,26,0.70
2013-1-31,55.3,37.4,25.5,54.5,27.9,12.0,100,69,47,29.78,29.07,31,7,31,0.57
2013-2-1,26.9,23.4,17.5,20.2,11.9,4.9,84,61,48,30.25,29.75,24,5,25,0.27
2013-2-2,23.7,18.7,12.9,17.2,9.0,3.8,88,66,52,30.27,29.98,13,2,13,0.27
2013-2-3,33.8,24.6,16.6,24.6,19.3,11.9,91,80,61,29.99,29.75,21,1,21,0.27
2013-2-4,29.8,23.5,18.9,20.8,12.6,7.2,86,63,49,30.11,29.60,17,2,17,0.02
2013-2-5,32.6,28.5,24.4,28.0,24.7,20.8,92,86,77,29.92,29.81,5,0,5,0.02
2013-2-6,37.8,29.1,18.1,27.6,21.4,13.5,94,74,45,30.32,29.88,14,1,14,0.02
2013-2-7,37.0,26.9,16.3,21.1,16.8,12.6,87,67,49,30.49,30.21,15,2,16,0.02
2013-2-8,39.7,34.3,28.7,34.0,30.2,21.1,96,85,66,30.21,29.68,15,2,15,0.03
2013-2-9,31.6,23.8,11.4,24.2,15.5,3.8,83,71,55,30.39,29.86,19,2,19,0.01
2013-2-10,53.1,24.3,3.6,25.5,13.3,-0.5,88,66,40,30.98,27.15,11,1,11,0.14
2013-2-11,43.0,37.5,33.2,39.4,32.0,18.4,97,81,50,30.18,29.64,16,1,17,0.12
2013-2-12,39.3,36.2,24.9,28.6,25.6,21.3,86,66,57,29.98,29.75,21,4,21,0.00
2013-2-13,45.9,31.4,19.4,33.0,26.3,17.2,95,82,59,29.94,29.63,6,0,6,0.02
2013-2-14,58.1,35.1,24.9,33.4,29.9,-29.2,96,82,60,34.98,20.91,10,1,10,0.07
2013-2-15,49.9,40.1,33.4,34.0,30.6,28.2,93,70,47,29.98,29.89,16,2,16,0.08
2013-2-16,40.4,31.3,25.8,31.8,21.3,0.0,94,68,48,33.11,29.31,12,2,12,0.00
2013-2-17,28.6,22.8,17.0,17.0,8.6,1.2,75,55,39,30.12,29.79,26,4,28,0.00
2013-2-18,61.8,24.6,13.3,23.7,10.5,-37.3,67,56,36,34.94,22.46,12,1,12,0.00
2013-2-19,38.4,31.3,21.3,35.2,26.3,15.8,95,82,61,30.08,29.44,23,1,23,0.26
2013-2-20,30.8,25.5,22.0,23.2,13.9,10.6,73,61,53,30.05,29.77,25,5,25,0.00
2013-2-21,36.7,26.7,21.2,19.5,15.3,12.0,74,62,48,30.33,30.01,19,3,19,0.00
2013-2-22,36.3,28.5,20.6,26.9,20.5,13.7,80,72,60,30.37,30.17,12,1,12,0.00
2013-2-23,41.7,36.3,33.5,37.8,33.1,26.8,96,88,76,30.18,29.82,7,0,7,0.01
2013-2-24,39.2,34.8,29.5,35.3,28.3,20.1,98,78,57,30.04,29.78,18,2,18,0.00
2013-2-25,48.2,34.2,25.2,32.2,24.7,19.9,87,69,49,30.27,30.03,12,1,12,3.42
2013-2-26,44.8,32.7,21.6,34.1,27.7,19.4,95,83,58,30.22,29.77,21,3,21,0.24
2013-2-27,37.3,37.0,36.6,36.3,36.0,35.6,96,96,96,29.62,29.59,1,0,1,0.39
2013-2-28,44.3,37.3,31.8,36.3,33.6,30.5,98,87,60,29.66,29.56,13,1,13,0.39
2013-3-1,41.8,36.2,32.0,33.2,29.4,22.6,93,77,61,29.90,29.65,17,2,17,0.04
2013-3-2,52.6,31.7,28.1,23.8,22.2,-16.9,76,68,59,33.11,20.14,15,3,16,0.00
2013-3-3,52.9,29.9,25.9,29.5,19.0,-14.7,76,64,54,33.11,26.06,19,3,19,0.00
2013-3-4,38.7,31.0,25.5,23.3,19.7,14.4,76,63,52,29.99,29.84,24,4,25,0.00
2013-3-5,48.7,34.3,27.5,31.3,24.4,21.5,82,67,48,30.05,29.88,15,1,15,0.00
2013-3-6,44.4,39.0,32.6,32.4,29.4,25.8,76,68,56,30.01,29.80,25,5,26,0.00
2013-3-7,42.7,38.1,31.3,27.5,25.4,20.9,66,60,50,30.15,29.98,16,3,16,0.00
2013-3-8,42.7,34.4,26.1,27.8,24.0,19.4,83,66,52,30.31,30.12,22,3,22,0.00
2013-3-9,62.1,38.1,19.3,35.3,25.7,16.5,93,66,28,30.35,30.23,10,1,10,0.00
2013-3-10,64.3,43.9,24.6,35.0,28.1,21.5,91,59,30,30.29,30.16,12,2,17,0.00
2013-3-11,60.9,50.3,40.3,49.5,38.5,28.6,81,65,40,30.19,29.88,31,2,31,0.00
2013-3-12,55.3,49.6,40.2,52.6,45.0,31.0,97,84,69,29.91,29.72,24,3,28,0.69
2013-3-13,46.2,37.4,28.0,34.0,27.8,16.9,91,69,42,29.95,29.81,24,3,24,0.00
2013-3-14,40.7,33.9,28.4,18.0,14.6,11.6,62,46,33,30.03,29.90,23,4,23,0.00
2013-3-15,45.4,34.9,19.4,33.2,23.9,13.7,84,64,53,30.03,29.67,16,2,16,0.00
2013-3-16,40.5,32.2,27.8,30.9,26.9,21.9,93,81,65,29.92,29.73,12,1,12,0.09
2013-3-17,39.3,32.0,24.7,27.4,23.4,19.0,94,72,50,30.27,29.91,12,1,12,0.12
2013-3-18,38.9,28.3,20.4,28.9,20.9,15.0,94,75,48,30.32,29.71,16,2,16,0.00
2013-3-19,49.9,38.5,31.3,40.5,30.4,18.5,96,75,31,29.88,29.66,30,2,30,0.36
2013-3-20,43.3,34.5,27.8,24.0,20.7,17.6,77,58,38,29.93,29.74,23,4,23,0.00
2013-3-21,36.3,29.0,19.0,22.5,16.7,10.6,84,61,36,29.82,29.55,19,2,19,0.00
2013-3-22,39.7,31.9,25.2,24.5,20.9,16.4,83,64,49,29.93,29.58,20,4,24,0.00
2013-3-23,45.4,35.8,26.2,25.4,22.0,18.8,74,58,41,29.98,29.88,19,3,21,0.00
2013-3-24,50.9,36.6,24.2,26.0,23.0,19.0,84,60,35,29.97,29.51,11,1,12,0.00
2013-3-25,39.9,36.2,32.6,34.5,30.4,24.5,95,80,60,29.65,29.51,13,1,13,0.16
2013-3-26,54.1,40.5,32.6,37.4,32.3,29.7,96,75,43,29.91,29.64,21,2,21,0.07
2013-3-27,51.4,39.7,29.0,35.4,29.8,25.9,91,69,42,30.03,29.90,20,2,20,0.07
2013-3-28,46.1,39.6,30.1,34.4,30.0,25.9,87,69,50,30.17,30.00,4,0,5,0.07
2013-3-29,50.5,42.7,30.9,36.0,30.9,26.1,83,64,44,30.18,30.09,0,0,0,0.07
2013-3-30,60.4,40.7,23.5,34.6,27.2,21.3,94,64,27,30.20,30.06,0,0,0,0.07
2013-3-31,53.0,40.4,26.7,44.6,35.2,22.5,97,82,52,30.08,29.69,23,1,26,0.22
2013-4-1,52.9,43.6,27.0,46.0,32.7,14.5,99,70,29,29.94,29.65,23,3,23,0.07
2013-4-2,43.5,32.6,22.0,19.1,16.1,13.3,80,53,32,30.11,29.93,22,3,22,0.07
2013-4-3,44.0,32.6,20.6,21.4,16.1,12.3,81,53,30,30.35,30.09,22,2,22,0.07
2013-4-4,58.6,38.7,19.7,28.8,20.7,14.5,84,52,28,30.38,30.02,14,2,14,0.07
2013-4-5,60.9,45.1,28.4,32.0,24.4,19.4,79,47,24,30.05,29.78,22,3,23,0.07
2013-4-6,62.4,42.8,26.4,24.9,20.4,14.6,69,43,21,30.31,30.05,16,2,16,0.07
2013-4-7,67.3,54.0,41.3,44.6,35.2,19.5,69,49,38,30.20,29.90,22,4,25,0.07
2013-4-8,82.0,60.3,36.4,53.0,45.3,34.0,96,62,32,30.08,29.89,20,2,20,0.07
2013-4-9,85.8,69.0,52.0,54.9,50.5,46.2,85,55,29,30.02,29.83,19,3,19,0.07
2013-4-10,84.0,68.9,59.7,64.5,58.7,52.2,98,72,50,29.92,29.75,27,2,31,0.65
2013-4-11,59.8,54.9,49.8,59.3,51.1,45.9,99,87,80,29.93,29.78,18,3,18,0.06
2013-4-12,49.8,46.7,43.2,46.3,43.8,40.8,95,89,84,29.88,29.63,19,3,19,0.37
2013-4-13,57.4,46.7,37.5,45.4,38.3,35.4,97,74,49,29.94,29.78,19,2,19,0.06
2013-4-14,60.2,48.6,38.2,40.1,34.7,27.9,92,61,40,30.24,29.89,18,3,20,0.06
2013-4-15,71.0,55.1,44.1,51.7,41.9,32.8,73,62,48,30.26,30.13,18,2,18,0.06
2013-4-16,69.7,59.7,52.8,59.8,52.6,44.3,91,77,70,30.26,30.06,23,2,23,0.06
2013-4-17,76.3,59.9,46.1,59.0,45.0,37.4,98,62,29,30.27,30.11,13,2,13,0.18
2013-4-18,62.1,56.8,45.1,57.7,48.2,38.7,90,74,50,30.23,29.96,22,3,22,0.06
2013-4-19,75.8,64.4,49.7,66.7,59.3,49.2,100,84,70,29.97,29.50,33,6,33,0.71
2013-4-20,54.2,47.3,37.0,49.8,33.2,22.9,100,59,38,30.36,29.74,24,4,24,0.06
2013-4-21,60.3,41.5,26.4,32.7,26.8,21.4,86,59,31,30.58,30.36,15,1,15,0.06
2013-4-22,63.9,47.7,31.4,38.5,32.6,28.4,91,60,34,30.58,30.40,21,2,21,0.06
2013-4-23,71.3,51.1,36.5,46.9,39.2,30.2,86,66,40,30.43,30.06,13,2,13,0.06
2013-4-24,76.3,56.0,36.9,61.1,49.0,35.9,99,80,50,30.09,29.71,26,3,26,0.35
2013-4-25,66.5,50.7,40.6,41.2,35.6,32.7,79,59,32,30.25,30.00,23,2,23,0.06
2013-4-26,68.5,50.6,35.6,39.4,34.6,28.9,94,59,27,30.43,30.25,12,1,12,0.06
2013-4-27,80.5,54.6,32.1,44.2,37.9,30.0,95,60,26,30.42,30.23,11,1,11,0.06
2013-4-28,73.1,56.2,37.1,50.1,42.3,35.3,97,64,34,30.26,30.11,22,3,22,0.06
2013-4-29,59.2,55.8,52.3,54.6,49.2,37.4,92,79,55,30.14,30.05,16,2,16,0.06
2013-4-30,72.3,61.4,54.3,57.1,51.7,36.0,93,72,49,30.29,30.12,14,2,16,0.06
2013-5-1,81.5,60.5,37.2,44.1,38.4,33.4,89,49,24,30.42,30.29,13,2,13,0.06
2013-5-2,83.8,61.4,38.4,52.0,45.7,36.6,97,62,30,30.43,30.29,15,1,15,0.06
2013-5-3,80.3,61.5,43.2,49.9,43.0,32.9,96,56,25,30.38,30.25,17,2,17,0.06
2013-5-4,82.9,60.2,36.5,52.6,43.6,34.2,95,59,31,30.32,30.13,11,1,11,0.06
2013-5-5,83.6,61.5,39.3,48.8,41.5,36.0,96,54,21,30.23,30.10,14,2,16,0.06
2013-5-6,80.2,59.4,36.8,57.8,48.0,34.8,96,69,44,30.20,30.06,14,1,14,0.06
2013-5-7,83.4,65.7,49.3,60.5,54.8,47.8,98,72,40,30.11,29.99,17,2,17,0.06
2013-5-8,67.5,61.3,51.5,62.8,58.6,50.6,98,91,82,30.04,29.89,14,1,14,0.80
2013-5-9,74.0,60.6,50.3,60.9,56.2,49.8,100,87,61,29.97,29.88,14,2,14,0.06
2013-5-10,82.2,65.6,54.6,68.2,60.6,53.8,100,86,53,30.00,29.83,14,1,15,0.14
2013-5-11,71.5,64.2,57.9,65.2,60.4,52.5,99,88,64,29.85,29.68,18,3,18,0.35
2013-5-12,60.4,53.4,41.6,52.9,40.2,31.8,95,63,36,29.95,29.71,28,4,28,0.06
2013-5-13,56.1,45.9,35.3,34.5,31.1,27.7,78,58,36,30.13,29.95,14,2,17,0.06
2013-5-14,66.3,48.0,28.6,41.4,32.4,26.3,95,60,27,30.17,29.99,14,2,14,0.06
2013-5-15,78.7,62.8,47.7,62.9,52.5,41.1,92,70,54,30.02,29.63,15,2,15,0.06
2013-5-16,58.6,56.2,53.4,56.3,54.8,52.2,96,95,92,29.75,29.72,2,0,2,0.00
2013-5-19,68.6,63.9,61.4,61.5,59.7,58.3,91,86,78,30.14,30.11,13,1,13,0.00
2013-5-20,83.6,66.3,60.3,70.1,62.3,58.1,94,87,64,30.12,29.94,7,0,7,0.00
2013-5-21,93.7,77.3,59.1,76.2,68.4,58.9,100,77,48,29.96,29.79,17,2,17,0.00
2013-5-22,94.0,79.4,66.2,75.8,68.9,65.3,100,74,43,29.91,29.75,23,2,23,0.74
2013-5-23,80.5,69.8,61.5,70.1,65.9,60.6,100,88,68,29.85,29.70,17,2,17,0.71
2013-5-24,67.1,51.4,44.5,62.0,47.2,-37.5,100,86,68,30.84,24.80,22,2,22,0.25
2013-5-25,61.7,51.6,41.8,41.5,38.2,35.7,86,62,40,30.10,30.02,22,4,23,0.00
2013-5-26,71.7,55.7,40.4,43.1,39.3,36.2,86,57,31,30.20,30.06,19,3,19,0.00
2013-5-27,74.1,56.9,35.3,50.2,43.1,33.7,98,65,33,30.27,30.12,14,2,14,0.00
2013-5-28,61.7,55.6,48.8,60.5,53.9,46.4,99,94,82,30.18,30.05,6,0,6,0.29
2013-5-29,88.9,72.0,57.1,73.0,65.4,56.8,100,82,53,30.07,29.98,16,2,16,0.09
2013-5-30,93.6,76.4,58.0,72.9,66.7,57.4,100,75,45,30.14,30.06,13,1,13,0.00
2013-5-31,95.8,78.2,61.9,77.8,67.7,61.4,100,74,41,30.12,29.96,14,1,14,0.00
2013-6-1,94.2,79.3,61.8,73.7,68.2,60.8,98,71,47,30.00,29.85,14,2,15,0.00
2013-6-2,87.0,78.9,70.3,72.6,69.0,66.6,90,73,55,29.85,29.75,18,3,18,0.00
2013-6-3,82.4,72.6,53.8,68.5,62.8,48.6,93,73,52,29.95,29.80,11,1,11,0.00
2013-6-4,78.8,61.4,43.0,52.5,47.3,41.4,96,64,33,30.13,29.95,15,2,15,0.00
2013-6-5,86.8,65.6,43.9,57.1,50.5,42.4,97,63,34,30.20,30.03,10,1,10,0.00
2013-6-6,71.9,64.4,59.6,60.5,56.4,52.6,92,76,52,30.07,29.88,21,2,21,0.22
2013-6-7,66.3,64.1,61.2,64.6,61.9,60.0,98,93,85,29.88,29.68,16,2,16,0.19
2013-6-8,78.3,66.4,56.4,66.0,61.9,54.9,100,87,58,30.08,29.70,10,1,10,0.01
2013-6-9,88.0,69.0,52.4,66.4,59.6,51.8,100,76,41,30.18,30.08,10,1,10,0.00
2013-6-10,69.4,66.5,64.1,68.4,64.8,60.5,100,95,87,30.11,29.73,9,1,10,1.59
2013-6-11,77.5,69.6,63.4,69.9,65.8,61.3,100,89,70,29.79,29.69,18,3,18,0.68
2013-6-12,86.5,71.7,60.8,66.0,61.5,58.8,96,73,43,29.86,29.78,16,1,16,0.68
2013-6-13,80.3,67.3,58.0,70.9,63.8,55.9,99,89,73,29.81,29.42,21,2,21,1.07
2013-6-14,77.5,65.0,56.5,61.8,57.7,53.1,96,79,56,29.95,29.62,16,2,16,0.11
2013-6-15,82.6,67.4,51.7,63.7,58.1,51.2,100,76,46,30.04,29.94,13,2,13,0.11
2013-6-16,80.7,68.6,56.3,69.6,62.4,54.6,99,82,59,30.00,29.79,16,2,20,0.11
2013-6-17,89.9,69.0,-25.8,71.7,63.6,-38.6,100,85,47,29.92,21.88,12,1,12,0.34
2013-6-18,82.7,70.1,57.7,70.4,63.6,57.0,100,81,62,29.57,29.45,11,1,11,0.34
2013-6-19,81.2,64.0,-25.8,60.0,55.0,-25.8,100,74,44,29.72,21.77,11,1,13,0.34
2013-6-23,93.3,80.1,76.2,73.2,71.5,69.9,85,76,50,30.10,30.05,8,0,8,0.00
2013-6-24,87.3,72.2,65.8,76.0,56.1,0.0,100,95,70,33.14,30.07,55,11,55,0.01
2013-6-25,87.0,78.4,69.6,75.5,72.8,68.0,96,84,68,29.92,29.85,15,2,16,0.33
2013-6-26,85.0,74.5,65.4,73.1,69.4,65.4,100,85,65,29.90,29.85,6,1,8,15.41
2013-6-27,92.0,73.5,64.1,76.8,69.8,64.1,100,90,57,29.88,29.59,16,0,16,1.37
2013-6-28,86.3,72.8,65.1,73.7,69.2,64.7,100,90,63,29.63,29.52,9,1,9,0.04
2013-6-29,93.5,73.0,63.4,73.2,66.7,0.0,100,83,50,33.18,21.41,14,2,15,0.02
2013-6-30,94.0,74.0,63.9,78.4,70.6,63.9,100,90,60,29.94,29.76,12,0,16,0.54
2013-7-1,84.7,74.8,69.9,75.9,72.5,69.9,100,93,74,30.04,29.91,14,1,14,0.93
2013-7-2,86.5,77.2,69.7,77.1,73.2,69.7,100,88,71,30.18,30.03,14,2,14,0.01
2013-7-3,90.2,77.8,70.1,76.8,72.8,69.2,99,86,64,30.27,30.18,11,1,12,0.00
2013-7-4,93.3,80.3,69.2,83.7,74.1,67.6,100,83,59,30.59,27.41,13,2,14,0.00
2013-7-5,94.5,82.1,69.8,78.8,74.9,69.8,100,81,57,30.25,30.13,9,1,16,0.00
2013-7-6,94.5,82.0,70.6,78.8,74.8,70.1,100,81,55,30.22,30.08,10,2,11,0.00
2013-7-7,94.8,79.0,69.6,79.3,72.9,68.1,100,84,55,30.16,30.01,40,2,40,0.01
2013-7-8,89.9,76.6,68.4,75.6,70.5,67.5,98,83,56,30.13,30.06,13,2,16,0.00
2013-7-9,91.5,76.0,66.3,77.7,71.2,66.1,100,86,60,30.14,30.03,21,1,22,0.00
2013-7-10,85.0,74.0,68.4,75.8,70.7,67.5,99,90,74,30.04,29.88,20,0,20,0.03
2013-7-11,88.5,75.7,65.3,71.7,67.2,61.3,100,78,47,30.01,29.88,11,1,11,0.01
2013-7-12,82.1,72.0,62.9,71.2,66.8,61.4,98,85,68,30.15,30.01,10,1,10,0.12
2013-7-13,92.2,76.2,67.2,77.3,71.5,66.9,100,87,59,30.33,30.13,11,1,11,0.09
2013-7-14,94.2,80.6,68.4,78.9,73.7,68.4,100,82,56,30.39,30.30,14,1,14,0.00
2013-7-15,99.5,82.6,67.9,80.9,74.9,67.9,100,80,50,30.35,30.22,11,0,11,0.00
2013-7-16,96.5,82.9,69.8,77.2,72.3,68.3,100,74,41,30.33,30.22,15,1,15,0.00
2013-7-17,101.8,83.8,66.2,79.5,73.6,65.6,100,75,45,30.31,30.13,9,0,9,0.00
2013-7-18,101.0,86.0,73.0,81.4,75.8,68.7,100,75,45,30.17,30.05,13,1,13,0.00
2013-7-19,110.0,84.4,69.6,80.9,75.4,42.7,99,76,55,30.54,26.48,18,2,18,0.00
2013-7-20,93.0,81.0,74.2,78.3,74.6,71.1,94,82,61,29.92,29.82,20,2,23,0.04
2013-7-21,97.5,81.0,67.4,73.0,69.2,64.0,100,72,37,30.01,29.91,7,0,7,0.00
2013-7-22,95.3,78.1,67.8,78.3,72.7,66.3,100,85,54,30.00,29.83,14,0,14,0.29
2013-7-23,89.8,77.5,71.0,75.2,72.3,-14.6,100,85,58,30.47,24.40,12,1,12,0.01
2013-7-24,80.0,70.1,57.4,66.2,61.2,51.9,97,75,53,30.06,29.73,13,2,14,0.00
2013-7-25,85.5,65.7,48.3,65.4,57.3,17.2,99,76,50,30.67,27.31,9,1,9,0.00
2013-7-26,88.3,69.9,55.0,64.4,59.4,54.5,100,74,37,30.15,30.06,11,1,11,0.00
2013-7-27,87.0,70.4,54.7,72.6,65.1,54.2,100,85,61,30.10,29.95,16,1,16,0.89
2013-7-28,87.2,73.1,66.6,73.8,69.1,64.6,100,88,61,30.02,29.94,14,0,14,0.20
2013-7-29,82.2,69.4,56.7,66.3,60.5,56.1,100,77,45,30.20,30.01,13,1,13,0.01
2013-7-30,81.8,67.2,53.1,64.7,59.4,52.5,100,79,51,30.28,30.19,10,1,11,0.00
2013-7-31,89.2,71.4,56.8,68.6,63.4,56.2,100,79,47,30.23,30.05,10,0,10,0.00
2013-8-1,81.2,73.2,67.6,72.3,68.8,65.3,98,87,72,30.05,29.85,12,1,12,0.04
2013-8-2,84.4,71.2,59.9,69.7,63.6,58.3,100,80,53,30.00,29.90,15,2,15,0.00
2013-8-3,82.5,69.7,63.1,70.5,65.5,58.5,100,88,64,29.99,29.92,11,1,11,0.28
2013-8-4,80.1,66.7,54.8,63.8,59.4,53.7,100,80,52,30.17,29.77,14,1,14,0.01
2013-8-5,82.5,65.7,51.0,62.5,56.8,50.2,100,76,46,30.17,30.08,9,1,11,0.00
2013-8-6,85.5,68.0,53.2,67.1,60.1,52.5,100,78,52,30.14,30.10,13,1,14,0.00
2013-8-7,75.3,70.5,63.9,70.8,67.1,61.0,94,89,82,30.14,30.05,10,0,10,0.01
2013-8-8,93.0,75.0,62.3,78.2,70.6,60.9,100,88,60,30.34,28.91,13,1,13,0.02
2013-8-9,86.5,76.4,70.3,78.2,74.1,70.0,100,93,76,30.02,29.88,11,1,11,0.61
2013-8-10,86.6,72.9,60.6,71.4,66.1,58.9,100,82,50,30.15,29.99,15,1,15,0.01
2013-8-11,85.5,68.5,56.7,69.6,62.2,56.4,100,83,49,30.20,30.07,9,0,9,0.00
2013-8-12,88.2,72.9,59.8,70.1,65.3,59.5,100,80,50,30.11,29.97,11,0,11,0.00
2013-8-13,86.8,72.7,64.1,74.7,67.2,55.9,100,84,56,29.97,29.76,13,1,13,0.37
2013-8-14,75.7,63.0,52.0,58.7,54.2,50.2,94,74,51,30.14,29.91,12,0,13,0.00
2013-8-15,81.8,62.3,45.3,60.8,53.3,44.9,100,77,41,30.24,30.13,10,1,11,0.01
2013-8-16,85.8,65.7,49.5,64.5,55.9,48.9,100,76,38,30.27,30.19,8,0,8,0.00
2013-8-17,87.7,67.7,51.4,66.0,58.3,50.9,100,77,35,30.35,30.27,7,0,7,0.00
2013-8-18,77.8,66.6,59.3,66.6,62.1,58.7,99,86,66,30.33,30.21,7,0,7,0.00
2013-8-19,83.9,67.9,57.3,68.6,62.8,57.0,100,86,58,30.22,30.10,10,1,10,0.00
2013-8-20,89.5,71.1,59.2,72.8,64.9,58.9,100,84,49,30.23,30.14,9,0,10,0.00
2013-8-21,92.2,72.8,57.0,71.8,65.0,56.7,100,80,46,30.28,30.10,12,1,12,0.00
2013-8-22,90.5,76.2,65.8,75.3,70.0,65.5,100,83,58,30.12,29.94,17,1,17,0.41
2013-8-23,84.0,71.0,57.8,70.3,63.5,55.6,100,80,44,30.22,30.01,13,1,13,0.00
2013-8-24,88.8,67.9,51.9,65.8,58.7,51.3,100,77,40,30.40,30.21,8,0,9,0.01
2013-8-25,86.5,68.3,51.6,66.3,58.9,51.0,100,76,42,30.47,30.27,12,1,13,0.00
2013-8-26,88.1,73.8,62.0,72.1,66.1,59.3,97,78,57,30.29,30.00,15,2,15,0.09
2013-8-27,91.0,76.6,65.3,75.3,71.0,65.2,100,85,60,30.01,29.93,9,1,10,0.01
2013-8-28,92.3,73.5,68.7,74.5,71.2,19.6,100,93,70,30.67,29.75,7,0,7,0.06
2013-8-29,95.6,75.2,63.9,75.8,70.0,63.9,100,86,52,30.10,29.94,9,0,9,0.00
2013-8-30,93.0,77.0,66.0,76.4,70.7,65.9,100,83,52,30.18,29.88,11,2,12,0.00
2013-8-31,91.0,79.6,67.9,76.5,72.9,67.2,100,81,61,29.91,29.82,14,2,14,0.00
2013-9-1,90.1,77.7,67.6,77.7,72.9,67.6,100,87,66,29.91,29.82,10,0,10,0.43
2013-9-2,91.3,76.3,67.0,78.2,71.6,67.0,100,87,60,29.91,29.73,13,1,14,0.04
2013-9-3,80.0,72.3,63.3,69.4,62.8,58.2,95,74,51,30.01,29.80,18,2,18,0.00
2013-9-4,84.7,68.3,53.5,63.8,59.4,53.0,100,76,47,30.11,30.01,14,2,15,0.00
2013-9-5,77.2,66.6,54.3,63.1,55.4,47.2,98,70,41,30.25,30.02,17,1,19,0.00
2013-9-6,78.0,58.5,41.4,53.7,47.2,40.3,98,71,37,30.35,30.19,9,0,9,0.00
2013-9-7,82.9,62.6,44.1,61.9,52.5,43.6,100,74,37,30.20,29.96,12,1,12,0.01
2013-9-8,76.5,66.1,53.4,66.3,58.2,45.8,97,77,47,30.18,29.92,15,2,15,0.00
2013-9-9,78.2,60.7,40.8,62.9,52.5,39.8,99,77,49,30.28,30.17,12,1,13,0.00
2013-9-10,93.6,77.9,64.6,77.7,70.9,62.9,98,81,58,30.20,30.08,16,2,16,0.01
2013-9-11,80.8,72.7,70.2,72.8,71.0,69.9,99,95,74,30.17,30.06,14,0,16,0.05
2013-9-12,88.0,72.0,66.9,76.3,70.1,66.8,100,94,67,30.06,29.78,15,1,16,0.30
2013-9-13,70.8,63.5,55.6,67.3,58.1,49.3,100,84,59,30.00,29.77,19,2,19,0.18
2013-9-14,63.7,52.8,0.3,50.6,47.1,-1.0,96,82,58,30.22,30.00,13,1,14,0.05
2013-9-15,77.7,56.5,42.1,58.1,50.0,41.0,100,82,42,30.30,30.11,9,1,9,0.05
2013-9-16,71.0,60.9,50.1,60.3,54.5,42.2,99,81,60,30.39,30.10,16,1,16,0.08
2013-9-17,76.1,53.7,35.8,50.2,43.6,34.5,98,73,34,30.52,30.36,8,0,10,0.08
2013-9-18,79.0,56.6,39.6,55.2,47.2,38.6,100,76,40,31.10,28.06,11,1,11,0.08
2013-9-19,84.0,59.9,41.9,61.0,51.3,41.1,100,78,39,30.25,26.60,9,1,9,0.08
2013-9-20,86.3,65.6,48.1,66.7,57.4,47.5,100,78,47,30.16,30.00,14,1,14,0.08
2013-9-21,88.7,64.8,-36.8,65.0,60.8,-40.9,100,87,76,33.18,25.75,17,1,17,0.51
2013-9-22,65.8,58.5,49.1,59.8,50.9,43.9,100,78,52,30.04,29.77,16,2,17,0.08
2013-9-23,65.3,53.9,41.5,48.8,45.0,39.8,94,73,53,30.15,30.04,15,1,15,0.08
2013-9-24,77.5,54.1,38.9,55.0,46.1,37.9,100,78,39,30.20,29.94,13,1,13,0.08
2013-9-25,80.4,55.5,39.4,57.3,48.5,38.6,100,81,42,30.22,29.94,7,0,7,0.08
2013-9-26,82.5,59.7,44.7,61.0,52.8,43.6,100,81,44,30.15,30.02,7,1,8,0.08
2013-9-27,81.8,63.7,50.9,59.7,54.3,49.3,95,74,42,30.31,30.15,11,1,11,0.08
2013-9-28,78.7,61.0,48.3,59.8,53.4,46.2,99,79,45,30.39,30.28,11,1,11,0.08
2013-9-29,74.5,57.9,43.6,60.1,51.5,42.8,100,82,50,30.29,30.12,8,1,8,0.08
2013-9-30,80.4,59.9,45.1,61.6,53.2,44.3,100,82,47,30.16,30.02,8,1,9,0.08
2013-10-1,81.0,61.9,49.0,65.0,55.5,48.3,100,82,49,30.12,29.99,12,1,13,0.08
2013-10-2,98.5,64.9,47.8,81.7,58.3,-25.1,100,82,53,33.18,26.02,19,1,19,0.08
2013-10-3,84.3,66.2,54.2,67.4,60.8,0.0,100,85,54,33.18,29.28,6,0,6,0.08
2013-10-4,95.1,70.0,58.6,71.4,65.2,0.0,100,86,59,33.18,27.69,10,1,11,0.08
2013-10-5,94.1,72.6,63.1,72.9,67.5,7.0,100,86,56,30.92,26.06,10,0,10,0.08
2013-10-6,86.5,73.2,63.1,72.4,68.2,62.8,100,85,63,30.09,29.96,18,2,18,0.08
2013-10-7,75.5,65.9,28.7,69.4,62.9,0.0,100,90,82,33.18,24.54,20,3,24,0.96
2013-10-8,71.5,53.7,40.2,55.5,46.6,39.0,100,80,44,30.57,29.73,10,1,11,0.96
2013-10-9,55.2,46.7,41.2,46.0,43.4,40.2,97,89,69,30.40,30.35,1,0,5,0.00
2013-10-10,66.3,52.0,43.2,52.5,48.0,-2.9,99,87,62,33.18,27.65,9,0,10,0.61
2013-10-11,69.7,59.4,52.4,63.0,57.0,50.0,100,92,72,30.35,30.07,11,0,11,0.22
2013-10-12,81.0,63.7,53.8,60.5,51.2,41.8,100,70,30,30.29,30.13,12,1,12,0.00
2013-10-13,78.0,62.7,51.2,57.3,52.8,48.8,94,72,46,30.45,30.28,11,1,11,0.00
2013-10-14,82.2,57.9,24.1,56.6,52.2,-43.7,100,83,57,30.75,26.94,7,0,8,0.00
2013-10-15,81.0,60.9,47.5,62.2,52.6,-15.0,100,78,40,30.96,25.85,9,0,9,0.00
2013-10-16,66.5,59.2,52.1,58.9,52.7,44.7,94,79,68,30.48,29.77,8,0,8,0.00
2013-10-17,79.7,64.7,26.8,63.8,59.3,-5.1,98,84,56,33.18,26.39,22,2,25,0.29
2013-10-18,64.2,54.1,40.2,55.9,46.0,0.0,94,76,48,33.18,29.81,16,2,19,0.00
2013-10-19,81.6,45.0,37.1,52.7,41.3,-32.9,100,90,57,33.18,24.00,18,1,18,0.03
2013-10-20,61.8,48.6,37.7,42.7,39.4,35.8,93,73,46,30.12,30.03,11,1,16,0.00
2013-10-21,37.6,36.0,34.6,35.9,34.6,33.6,96,95,93,30.16,30.12,0,0,0,0.00
2013-10-22,74.0,50.8,37.2,53.5,41.6,-21.2,91,73,39,33.18,25.42,17,1,19,0.00
2013-10-23,53.7,39.9,31.7,39.8,34.4,29.8,96,82,52,29.95,29.63,9,0,9,0.00
2013-10-24,50.7,40.3,31.9,36.0,32.2,0.0,96,75,49,33.18,29.88,17,2,17,0.00
2013-10-25,52.4,40.8,31.0,39.4,33.6,28.0,93,76,55,30.29,30.10,16,1,17,0.00
2013-10-26,56.0,41.4,26.0,35.5,30.2,24.5,98,68,40,30.29,29.94,26,3,27,0.00
2013-10-27,53.2,45.5,31.7,38.5,34.3,28.3,89,66,51,30.20,29.94,16,2,16,0.00
2013-10-28,62.1,41.6,26.3,43.7,34.4,24.6,99,78,47,30.49,30.19,10,1,10,0.00
2013-10-29,61.4,44.9,31.9,41.3,35.6,29.9,96,72,45,30.66,30.37,10,0,10,0.00
2013-10-30,69.7,50.4,37.4,53.3,42.6,33.5,94,76,48,30.37,30.17,7,0,7,0.00
2013-10-31,62.7,55.1,41.5,60.4,53.3,40.1,98,94,89,30.24,29.75,19,2,19,0.11
2013-11-1,70.8,60.6,42.7,63.4,53.7,40.7,100,81,44,29.76,29.50,28,5,28,0.46
2013-11-2,58.3,47.6,39.0,49.7,43.4,38.2,100,86,64,29.89,29.71,7,0,7,0.00
2013-11-3,48.9,41.2,26.9,43.9,30.4,20.4,92,66,43,30.55,29.89,18,2,19,0.00
2013-11-4,50.9,33.1,19.2,28.1,22.4,-6.1,93,67,37,33.18,20.45,9,0,9,0.00
2013-11-5,59.0,43.4,30.6,42.9,35.4,24.4,88,74,56,30.68,30.27,12,1,13,0.00
2013-11-6,64.9,55.0,44.8,53.1,48.7,-31.6,92,80,65,33.18,27.62,19,3,20,0.00
2013-11-7,59.7,51.0,38.0,54.8,46.5,30.3,100,85,69,30.13,29.66,18,1,19,0.01
2013-11-8,46.5,39.3,32.3,35.3,31.6,27.3,91,74,60,30.31,30.05,18,2,19,0.00
2013-11-9,64.7,42.5,30.7,33.2,30.6,0.0,85,64,48,33.18,29.99,14,1,14,0.00
2013-11-10,61.0,43.0,-44.5,40.8,32.5,-55.2,91,68,52,33.18,26.77,20,3,29,0.00
2013-11-11,50.7,41.3,27.6,36.9,31.4,24.5,93,69,52,30.40,29.88,14,2,14,0.00
2013-11-12,47.6,33.5,24.3,37.6,22.5,13.3,90,65,41,30.49,29.81,19,3,22,0.01
2013-11-13,41.2,28.5,17.6,23.9,18.6,13.1,84,68,45,30.58,30.29,15,1,15,0.00
2013-11-14,69.1,36.7,23.6,24.7,20.1,-14.6,81,55,24,33.18,29.13,14,2,15,0.00
2013-11-15,56.1,35.5,21.6,34.3,26.4,17.8,91,72,38,30.32,30.20,5,0,5,0.00
2013-11-16,65.8,47.7,31.1,47.7,40.0,29.0,96,77,49,30.37,30.26,9,0,9,0.07
2013-11-17,75.3,55.8,49.5,60.0,52.9,-21.1,93,90,87,34.79,26.86,28,2,33,0.04
2013-11-18,61.6,53.5,45.5,59.1,41.0,29.4,100,66,40,29.95,29.62,30,6,33,0.22
2013-11-19,61.1,37.5,24.5,31.7,25.7,-28.1,85,63,50,34.95,26.80,19,2,19,0.00
2013-11-20,49.9,31.3,19.4,27.6,20.6,14.6,95,68,33,30.62,30.47,16,1,16,0.00
2013-11-21,51.1,35.2,19.8,37.8,28.5,0.0,87,77,60,31.83,29.53,10,0,10,0.00
2013-11-22,69.8,45.7,38.5,65.4,43.0,0.0,98,90,82,30.68,27.24,15,0,19,0.06
2013-11-23,46.6,35.2,24.0,41.4,24.5,6.5,90,66,45,30.22,30.02,25,3,25,0.00
2013-11-24,27.6,21.5,14.4,10.2,5.4,1.2,76,50,33,30.49,30.19,23,3,23,0.00
2013-11-25,34.1,24.9,13.4,17.2,12.2,-14.3,86,61,42,30.83,27.36,13,1,14,0.00
2013-11-26,38.7,31.6,27.5,38.1,26.8,12.2,99,84,43,30.34,29.65,18,0,18,1.13
2013-11-27,43.1,35.3,28.5,43.1,31.3,18.2,100,86,62,29.95,29.56,20,3,21,0.62
2013-11-28,33.7,28.6,24.9,23.4,18.5,15.2,75,66,53,30.51,29.95,17,3,18,0.00
2013-11-29,35.4,26.9,16.6,24.4,19.3,13.3,87,73,55,30.79,30.49,9,0,10,0.00
2013-11-30,38.0,24.9,13.3,24.5,18.4,10.7,91,78,51,30.79,29.99,15,1,15,28.48
2013-12-1,37.2,30.4,20.0,32.2,26.1,17.8,95,84,74,29.99,29.66,6,0,6,0.00
2013-12-2,46.7,36.3,30.5,36.7,31.4,27.4,91,83,67,29.66,29.51,5,0,5,0.00
2013-12-3,54.5,39.3,28.8,41.6,34.0,26.5,94,82,58,29.66,29.42,8,0,9,0.00
2013-12-4,57.1,40.1,28.1,45.5,36.5,0.0,98,88,64,30.04,28.93,5,0,5,0.00
2013-12-5,72.3,51.5,47.0,65.0,49.9,-15.3,100,94,87,31.93,27.03,10,1,11,0.25
2013-12-6,64.9,41.3,8.6,51.2,39.5,0.0,100,93,85,30.49,28.27,9,1,9,0.82
2013-12-7,59.6,31.4,24.6,32.7,26.7,-19.7,96,85,62,31.05,27.08,10,0,10,0.11
2013-12-8,28.0,23.8,16.9,24.2,19.2,13.5,91,83,68,30.23,29.95,10,1,10,0.00
2013-12-9,34.2,31.5,26.4,33.7,30.4,24.1,98,95,85,29.95,29.45,10,1,12,0.10
2013-12-10,34.1,30.8,25.3,29.9,22.6,11.2,89,72,50,29.78,29.56,18,2,22,0.02
2013-12-11,33.5,26.7,21.4,17.8,14.3,11.6,72,60,43,29.96,29.77,20,4,20,0.00
2013-12-12,25.5,21.7,18.8,18.0,11.2,4.6,79,64,52,30.28,29.88,14,1,14,0.00
2013-12-13,34.5,26.9,16.8,20.4,13.3,5.3,73,56,49,30.35,30.16,19,3,19,0.00
2013-12-14,28.1,25.1,22.3,25.5,20.7,14.9,94,84,70,30.45,29.83,15,3,16,0.00
2013-12-15,36.4,28.9,24.2,30.6,24.4,19.0,94,84,67,29.92,29.65,11,2,20,0.06
2013-12-16,28.5,20.0,8.8,18.9,9.4,4.2,84,64,48,30.24,29.92,19,3,20,0.01
2013-12-17,28.3,20.1,10.5,22.8,16.1,6.6,90,84,78,30.22,30.00,4,0,4,0.00
2013-12-18,35.2,25.0,13.0,28.1,19.0,10.4,94,79,61,30.21,30.02,17,2,17,0.02
2013-12-19,46.7,27.6,13.4,30.3,21.1,10.8,93,78,52,30.19,30.06,4,0,4,0.15
2013-12-20,40.2,33.5,28.0,33.2,29.7,24.5,92,86,75,30.13,29.99,5,0,5,0.10
2013-12-21,46.8,38.8,33.2,41.3,36.4,31.4,98,91,76,30.01,29.55,3,0,8,0.09
2013-12-22,66.0,35.9,0.0,62.2,26.1,0.0,100,98,86,29.92,29.67,25,2,27,0.12
2013-12-23,0.0,0.0,0.0,0.0,0.0,0.0,100,100,100,30.20,29.90,0,0,0,0.12
2013-12-24,0.0,0.0,0.0,0.0,0.0,0.0,100,100,100,30.41,30.11,0,0,0,0.12
2013-12-25,0.0,0.0,0.0,0.0,0.0,0.0,100,100,100,30.53,30.33,0,0,0,0.00
2013-12-26,0.0,0.0,0.0,0.0,0.0,0.0,100,100,100,30.33,30.15,0,0,0,0.00
2013-12-27,28.4,6.5,0.0,23.0,5.5,0.0,100,96,78,30.33,30.24,1,0,2,0.00
2013-12-28,55.1,46.9,22.9,31.1,27.0,20.1,89,49,31,30.24,30.05,13,2,13,0.00
2013-12-29,39.9,35.4,29.1,39.9,33.9,26.0,100,94,85,30.05,29.57,7,1,7,0.78
2013-12-30,40.9,33.5,25.3,38.9,23.3,10.3,100,67,48,30.17,29.74,14,2,14,0.00
2013-12-31,30.7,24.7,21.1,23.1,11.8,5.2,82,58,44,30.29,30.04,29,4,29,0.01
2014-1-1,28.8,25.5,18.0,20.1,16.2,8.4,77,68,56,30.39,30.17,11,2,11,0.00
2014-1-2,28.1,25.5,18.1,22.0,19.9,12.4,89,79,72,30.17,29.72,13,3,13,0.00